THOR ABLESTAR DEB, 402

Orbit data source: Space-Track

THOR ABLESTAR DEB, 402 is space debris in LEO originally from a launch on Thu, 29 Jun 1961 UTC launched from the Air Force Eastern Test Range (AFETR). Debris objects in space refer to the collection of defunct objects orbiting the Earth. Examples of debris include non-operational satellites, rocket bodies, and fragments generated from explosions, collisions, or faulty payload assembly.

Loading next visibility...
Identifier
402, 1961-015EB
Orbit
LEO
Last TLE update
13 hours ago
Origin
Manufacturer
Unknown
Mission
Spacecraft
Bus & Motor
Unknown
Mass
Unknown
Launch date (UTC)
1961-06-29 (64 years ago)
Launch vehicle
Unknown
Launch site
Air Force Eastern Test Range (AFETR)
Object type
Payload
Rocket body
Debris
Shape & HBR
Unknown
Radar Cross Section
Small (<0.1 m²)

Expand to show TLE details & history

TLE from 13 hours ago
0 THOR ABLESTAR DEB
1 00402U 61015EB  25128.67899716  .00010410  00000-0  19572-2 0  9992
2 00402  66.6545 279.9807 0034853 265.2298  94.4836 14.64551670281812
Epoch: 2025-05-08T16:17Z
Definitive object data (Epoch: 2025-05-08T16:17:45.354Z)
Latitude
-0.00012°
Longitude
168.79564°
Altitude
682.66 km
Speed
7.515 km/s
True Right ascension
18h 39m 55s
True Declination
0° 00' 00"
Sunlit
Object was in full shadow at TLE epoch
Visualization TLE readout
Latitude
-59.83382°
Longitude
34.95106°
Altitude
676.92 km
Speed
7.53 km/s
Apparent Right ascension
04h 07m 51s
Apparent Declination
-69° 42' 23"
Sunlit
Object is in daylight
Visualization observer readout
Local Sidereal Time
13:03:06
Azimuth
203.88° SW
Elevation
-51.813°
Doppler factor
1
Orbital elements
Apogee altitude
701.458 km
Perigee altitude
652.28 km
Semi-major axis
7,055.006 km
Eccentricity
0.0034853
Inclination
66.6545°
RAAN
279.9807°
Arg. of periapsis
265.2298°
True anomaly
94.88162°
Mean anomaly
94.4836°
Eccentric anomaly
94.68263°
Mean motion
3.66266 °/min
BSTAR
0.0019572
Orbital period
98.29 mins
Loading maneuver chart data...
Loading SW <> Apogee altitude chart data...

THOR ABLESTAR DEB Visibility forecast

Observer location: undefined°, undefined°

Span
Click to sort rows by Start time (UTC) header in descending order
Start Az.
Max El. time (UTC)
Max El. Az.
Max El.
End time (UTC)
End Az.
5 mins2025-05-09 10:27:31.818Z140.788° SSE2025-05-09 10:30:31.818Z99.008° ESE16.416°2025-05-09 10:32:31.818Z72.532° E
7 mins2025-05-09 12:07:31.818Z232.407° WSW2025-05-09 12:10:31.818Z299.655° NW38.867°2025-05-09 12:14:31.818Z17.468° NNE
7 mins2025-05-09 20:43:31.818Z334.176° NNW2025-05-09 20:46:31.818Z43.87° NE44.729°2025-05-09 20:50:31.818Z148.453° SSE
|